Aérodrome :
LOGIN :

S'inscrire | Disclaimer

   EN    FR    IT 

 










Légende :    VFR   VFR Marginal   IFR   IFR Intensif   IFR Très Intensif
Visi : 
Plafond : 
>= 8 km
>= 3000ft
5 à 8 km
1000 à 3000 ft
1500m à 5 km
500 à 1000 ft
800 à 1500m
200 à 500 ft
< 800m
< 200 ft
Symboles :   Orages  Brouillard  Fortes neiges  Fortes précipitations  Vent > 20 kt
SIGMETs :   Divers  Orages  Givrage  Turbulence  Onde Orograph.  Cendres Volcan.







- Altitude de l'aérodrome : 1411 ft
- Code IATA : ZHI


LSZG - Grenchen

DERNIER METAR :
  • 180620Z 20002KT CAVOK 18/17 Q1019 NOSIG

METARs EXPIRÉS :
  • 180550Z 23001KT CAVOK 17/17 Q1019 NOSIG
  • 180520Z AUTO 00000KT 9999 NSC 17/16 Q1019
  • 180450Z AUTO 19001KT 9999 BR NCD 16/16 Q1019
  • 180420Z AUTO 27002KT 8000 NCD 16/16 Q1019
  • 180350Z AUTO 00000KT 9999 NCD 16/16 Q1019

TAF TAF LSZG
Valide du 18 à 06h jusqu'au 18 à 15h UTC


180525Z 1806/1815 19001KT 9999 BR SCT180
TEMPO 1806/1812 CAVOK
PROB40 1812/1815 30012G30KT TSRA SCT060CB
ATIS : +41 32 396 96 33
Pas de NOTAMs connus pour ce terrain.



MET'MAP, la Météo Aéronautique d'un coup d'oeil ! - Copyright ORBIFLY Décembre 2007 - Disclaimer

ORBIFLY MET'MAP TEAM :

Programmation & Développement : Alexandra Zaïnal
Conception & Développement : Baudouin d'Aumeries
Co-Programmation & Développement : Marc-Olivier Méhu
Soutien technique & logistique : Manuel Goepfert

Contact : metmap@orbifly.com




SOURCES & CREDITS :

   NOAA